Voltar ao catálogo

CZ-6A DEB

AtivoPO
NORAD 56653·DEBRIS·🇨🇳 China

Lançado Nov 11, 2022 de Taiyuan Satellite Launch Center

Loading…

Próximas Passagens (próximas 24 horas)

TLE

AtualizadoSource: Space-Track

Época: Sep 13, 2026, 11:25 UTC

1 56653U 22151AGD 26256.47608925  .00003811  00000-0  54643-3 0  9996
2 56653  98.6010 348.3269 0102787 271.0844  87.8587 14.73629169181187

Acompanhe CZ-6A DEB em tempo real com AllMySat

Download on the App Store